METEOR 2-17 DEB, 28990

Orbit data source: Space-Track

METEOR 2-17 DEB, 28990 is space debris in LEO originally from a launch on Sat, 30 Jan 1988 UTC launched from the Plesetsk Missile And Space Complex (PKMTR). Debris objects in space refer to the collection of defunct objects orbiting the Earth. Examples of debris include non-operational satellites, rocket bodies, and fragments generated from explosions, collisions, or faulty payload assembly.

Loading next visibility...
Identifier
28990, 1988-005E
Orbit
LEO
Country
Flag of CISCIS
Related business
Manufacturer
Unknown
Mission
Spacecraft
Bus & Motor
Unknown
Mass
Unknown
Launch date (UTC)
1988-01-30 (38 years ago)
Launch vehicle
Unknown
Launch site
Plesetsk Missile And Space Complex (PKMTR)
Object type
Payload
Rocket body
Debris
Shape & HBR
Unknown shape, 0.1 m
Radar Cross Section
Small (<0.1 m²)

Expand to show TLE details & history
Last TLE update: 2 days ago

TLE from 2 days ago
0 METEOR 2-17 DEB
1 28990U 88005E   25350.39877018  .00001591  00000-0  10047-2 0  9997
2 28990  82.5130  24.7398 0011959 322.6286  37.4052 14.03581422580099
Epoch: 2025-12-16T09:34Z
TLE epoch observation values (Epoch: 2025-12-16T09:34:13.743Z)
Latitude
-0.00003°
Longitude
155.89899°
Altitude
877.454 km
Speed
7.417 km/s
True Right ascension
01h 38m 57s
True Declination
0° 00' 00"
Sunlit
Object was in daylight at epoch
Visualization orbit readout
Latitude
Unknown
Longitude
Unknown
Altitude
Unknown
Speed
Unknown
Apparent Right ascension
Unknown
Apparent Declination
Unknown
Sunlit
N/A
Visualization observer readout
Local Sidereal Time
19:26:09
Azimuth
Unknown
Elevation
Unknown
Doppler factor
Unknown
Orbital elements
Apogee altitude
887.224 km
Perigee altitude
869.868 km
Semi-major axis
7,256.683 km
Eccentricity
0.0012
Inclination
82.513°
RAAN
24.7398°
Arg. of periapsis
322.6286°
True anomaly
37.48854°
Mean anomaly
37.4052°
Eccentric anomaly
37.44686°
Mean motion
3.51104 °/min
Orbital period
102.53 mins
BSTAR
0.0010047
Loading maneuver chart data...
Computing Atmospheric mass density...
Loading historical data...
Loading historical data...
Loading historical data...
Loading historical data...
Loading historical data...
Loading historical data...
Loading historical data...

Documentation

Showing up to 5 results
|